FW6684 Weather Reports


Display with metric or nautical units.
time (UTC)temp
F
wind
direction
speed
MPH
gust
MPH
rain 1hr
in
rain 24hr
in
rain mn
in
humidity
%
barometer
mb
20260507164043 59 0 0.0 0.0 0.00 0.00 0.00 52 1017.6
20260507163544 59 0 0.0 0.0 0.00 0.00 0.00 53 1017.4
20260507163049 59 0 0.0 0.0 0.00 0.00 0.00 52 1017.4
20260507162544 59 0 0.0 0.0 0.00 0.00 0.00 52 1017.5
20260507162043 59 0 0.0 0.0 0.00 0.00 0.00 54 1017.4
20260507161553 59 0 0.0 0.0 0.00 0.00 0.00 52 1017.5
20260507161043 59 0 0.0 0.0 0.00 0.00 0.00 52 1017.5
20260507160543 59 0 0.0 0.0 0.00 0.00 0.00 52 1017.6
20260507160052 60 0 0.0 0.0 0.00 0.00 0.00 53 1017.5
20260507155543 60 0 0.0 0.0 0.00 0.00 0.00 52 1017.5
20260507155043 60 0 0.0 0.0 0.00 0.00 0.00 51 1017.5
20260507154554 60 0 0.0 0.0 0.00 0.00 0.00 51 1017.5
20260507154044 60 0 0.0 0.0 0.00 0.00 0.00 52 1017.5
20260507153543 60 0 0.0 0.0 0.00 0.00 0.00 51 1017.6
20260507153051 60 0 0.0 0.0 0.00 0.00 0.00 50 1017.5
20260507152544 60 0 0.0 0.0 0.00 0.00 0.00 49 1017.6
20260507152043 61 0 0.0 0.0 0.00 0.00 0.00 49 1017.6
20260507151547 61 0 0.0 0.0 0.00 0.00 0.00 48 1017.6
20260507151042 61 0 0.0 0.0 0.00 0.00 0.00 48 1017.6
20260507150543 61 0 0.0 0.0 0.00 0.00 0.00 44 1017.7
20260507150050 62 0 0.0 0.0 0.00 0.00 0.00 49 1017.7
20260507145543 61 0 0.0 0.0 0.00 0.00 0.00 48 1017.7
20260507145042 61 0 0.0 0.0 0.00 0.00 0.00 48 1017.7
20260507144553 61 0 0.0 0.0 0.00 0.00 0.00 46 1017.7
20260507144043 61 0 0.0 0.0 0.00 0.00 0.00 45 1017.8
20260507143543 61 0 0.0 0.0 0.00 0.00 0.00 46 1017.8
20260507143103 61 0 0.0 0.0 0.00 0.00 0.00 46 1017.8
20260507142543 61 0 0.0 0.0 0.00 0.00 0.00 46 1017.9
20260507142043 61 0 0.0 0.0 0.00 0.00 0.00 45 1017.8
20260507141555 62 0 0.0 0.0 0.00 0.00 0.00 44 1018.0
20260507141043 62 0 0.0 0.0 0.00 0.00 0.00 46 1018.1
20260507140543 62 0 0.0 0.0 0.00 0.00 0.00 46 1018.0
20260507140048 61 0 0.0 0.0 0.00 0.00 0.00 46 1018.1
20260507135543 60 0 0.0 0.0 0.00 0.00 0.00 46 1018.1
20260507135043 60 0 0.0 0.0 0.00 0.00 0.00 48 1018.0
20260507134556 59 0 0.0 0.0 0.00 0.00 0.00 48 1018.1
20260507134042 59 0 0.0 0.0 0.00 0.00 0.00 48 1018.1
20260507133543 58 0 0.0 0.0 0.00 0.00 0.00 49 1018.2
20260507133056 58 0 0.0 0.0 0.00 0.00 0.00 51 1018.2
20260507132542 58 0 0.0 0.0 0.00 0.00 0.00 51 1018.2
20260507132042 58 0 0.0 0.0 0.00 0.00 0.00 53 1018.2
20260507131602 58 0 0.0 0.0 0.00 0.00 0.00 53 1018.3
20260507131042 58 0 0.0 0.0 0.00 0.00 0.00 52 1018.2
20260507130547 58 0 0.0 0.0 0.00 0.00 0.00 49 1018.2
20260507130057 58 0 0.0 0.0 0.00 0.00 0.00 51 1018.3
20260507125543 58 0 0.0 0.0 0.00 0.00 0.00 49 1018.3
20260507125043 59 0 0.0 0.0 0.00 0.00 0.00 48 1018.3
20260507124557 59 0 0.0 0.0 0.00 0.00 0.00 47 1018.3
20260507124047 59 0 0.0 0.0 0.00 0.00 0.00 47 1018.3
20260507123543 59 0 0.0 0.0 0.00 0.00 0.00 48 1018.2
20260507123049 59 0 0.0 0.0 0.00 0.00 0.00 48 1018.3
20260507122547 59 0 0.0 0.0 0.00 0.00 0.00 49 1018.3
20260507122045 59 0 0.0 0.0 0.00 0.00 0.00 49 1018.3
20260507121551 59 0 0.0 0.0 0.00 0.00 0.00 49 1018.4
20260507121047 58 0 0.0 0.0 0.00 0.00 0.00 52 1018.6
20260507120542 58 0 0.0 0.0 0.00 0.00 0.00 51 1018.5
20260507120052 58 0 0.0 0.0 0.00 0.00 0.00 49 1018.6
20260507115543 59 0 0.0 0.0 0.00 0.00 0.00 50 1018.7
20260507115042 59 0 0.0 0.0 0.00 0.00 0.00 48 1018.6
20260507114549 59 0 0.0 0.0 0.00 0.00 0.00 54 1018.6
20260507114045 59 0 0.0 0.0 0.00 0.00 0.00 50 1018.5
20260507113543 59 0 0.0 0.0 0.00 0.00 0.00 50 1018.6
20260507113052 59 0 0.0 0.0 0.00 0.00 0.00 51 1018.6
20260507112544 59 0 0.0 0.0 0.00 0.00 0.00 53 1018.7
20260507112042 59 0 0.0 0.0 0.00 0.00 0.00 54 1018.6
20260507111550 58 0 0.0 0.0 0.00 0.00 0.00 56 1018.7
20260507111045 57 0 0.0 0.0 0.00 0.00 0.00 56 1018.8
20260507110543 57 0 0.0 0.0 0.00 0.00 0.00 63 1018.6
20260507105542 56 0 0.0 0.0 0.00 0.00 0.00 60 1018.8
20260507105043 56 0 0.0 0.0 0.00 0.00 0.00 61 1018.7